sat.trackr.live / text

‹ back to catalog

STARLINK-6341

NORAD 56786 · 2023-078V

PAYLOAD ACTIVE UNKNOWN

§ Identity

Operator
Country
US
Launch date
2023-05-31
Launch site
AFWTR
Launch vehicle
Mass (kg)
RCS (m²)

Purposes: comms

External: N2YO · Heavens-Above · Gunter

§ Orbital elements

Epoch: 2026-05-25T04:57:32.893344Z

Period
96.11 min
Inclination
69.9989°
Eccentricity
0.0003626
Mean motion
14.98331232 rev/d
Perigee alt
569.5 km
Apogee alt
574.6 km
Semi-major
6,950.2 km
B*
-1.4777e-5
RAAN
131.5861°
Arg perigee
266.6822°
Mean anomaly
93.3922°
Rev number
16,463

§ Raw data

STARLINK-63411 56786U 23078V   26145.20663071 -.00000269  00000+0 -14777-4 0  99932 56786  69.9989 131.5861 0003626 266.6822  93.3922 14.98331232164632

JSON: /api/v1/satellites/56786 · /tle

For live sub-satellite position, see the globe view (requires WebGL).

§ Visibility from observer

Set your observer location to see the next 7 days of passes ≥ 10°. The values pass through the URL so the page stays shareable.

No JS? Fill the form by hand. The geolocation button needs JavaScript.